Location: Oroua River
(40.4333°S, 175.4333°E)
Time: 15:08:12
(UTC+00:00)

MOS 1 Rocket - Pass Details

Date: 03 February 2023
Orbit: 613 x 827 km, 97.5° (Epoch: 22 March)

Event Time Altitude Azimuth Distance (km) Brightness Sun altitude
Rises 13:44:22 0° 170° (S) 2,962 7.7 -30.6°
Reaches altitude 10° 13:46:37 10° 171° (S) 2,029 6.6 -30.5°
Enters shadow 13:49:20 37° 176° (S) 979 4.4 -30.3°
